EW3579 Weather Reports


Display with metric or nautical units.
time (UTC)temp
F
wind
direction
speed
MPH
gust
MPH
rain 1hr
in
rain 24hr
in
rain mn
in
humidity
%
barometer
mb
20190323110508 53 285 2.0 6.0 0.00 0.00 0.00 75 1031.0
20190323110011 53 311 2.0 7.0 0.00 0.00 0.00 75 1031.0
20190323105507 53 295 5.0 7.0 0.00 0.00 0.00 75 1031.0
20190323105011 53 273 3.0 7.0 0.00 0.00 0.00 75 1031.0
20190323104507 53 263 5.0 8.0 0.00 0.00 0.00 76 1031.0
20190323104011 53 259 5.0 8.0 0.00 0.00 0.00 76 1031.0
20190323103511 53 280 2.0 7.0 0.00 0.00 0.00 77 1031.0
20190323103011 53 325 3.0 7.0 0.00 0.00 0.00 77 1030.9
20190323102511 52 264 5.0 7.0 0.00 0.00 0.00 77 1030.0
20190323102010 52 266 3.0 6.0 0.00 0.00 0.00 78 1030.0
20190323101510 52 235 3.0 6.0 0.00 0.00 0.00 79 1030.1
20190323101010 52 249 0.0 6.0 0.00 0.00 0.00 79 1031.0
20190323100507 52 256 2.0 6.0 0.00 0.00 0.00 80 1031.0
20190323100010 52 249 3.0 6.0 0.00 0.00 0.00 80 1031.0
20190323095507 51 256 3.0 6.0 0.00 0.00 0.00 80 1031.0
20190323095012 51 249 3.0 7.0 0.00 0.00 0.00 80 1031.0
20190323094507 51 257 6.0 7.0 0.00 0.00 0.00 80 1031.0
20190323094012 51 249 6.0 8.0 0.00 0.00 0.00 80 1031.0
20190323093510 51 289 6.0 8.0 0.00 0.00 0.00 80 1031.0
20190323093011 51 239 6.0 8.0 0.00 0.00 0.00 81 1031.0
20190323092507 51 261 5.0 8.0 0.00 0.00 0.00 81 1031.0
20190323092011 51 269 3.0 9.0 0.00 0.00 0.00 81 1031.0
20190323091508 50 266 6.0 9.0 0.00 0.00 0.00 81 1031.0
20190323091012 50 276 6.0 9.0 0.00 0.00 0.00 81 1031.0
20190323090507 50 267 5.0 8.0 0.00 0.00 0.00 82 1031.0
20190323090011 50 252 3.0 8.0 0.00 0.00 0.00 82 1031.0
20190323085511 50 249 2.0 8.0 0.00 0.00 0.00 82 1031.0
20190323085007 50 245 5.0 8.0 0.00 0.00 0.00 82 1031.0
20190323084512 50 246 5.0 8.0 0.00 0.00 0.00 82 1031.0
20190323084007 50 250 6.0 8.0 0.00 0.00 0.00 82 1031.0
20190323083512 50 251 6.0 8.0 0.00 0.00 0.00 82 1031.0
20190323083008 50 241 6.0 8.0 0.00 0.00 0.00 82 1031.0
20190323082511 50 248 6.0 8.0 0.00 0.00 0.00 82 1031.0
20190323082011 50 248 6.0 8.0 0.00 0.00 0.00 83 1031.0
20190323081508 50 248 5.0 8.0 0.00 0.00 0.00 83 1030.3
20190323081012 50 248 6.0 10.0 0.00 0.00 0.00 83 1030.0
20190323080507 50 258 6.0 10.0 0.00 0.00 0.00 83 1030.0
20190323080008 49 269 5.0 10.0 0.00 0.00 0.00 83 1030.0
20190323075512 49 261 5.0 10.0 0.00 0.00 0.00 83 1030.0
20190323075011 49 250 7.0 10.0 0.00 0.00 0.00 84 1030.0
20190323074508 49 235 6.0 8.0 0.00 0.00 0.00 84 1030.0
20190323074012 49 230 6.0 8.0 0.00 0.00 0.00 84 1030.0
20190323073511 49 234 5.0 8.0 0.00 0.00 0.00 84 1030.0
20190323073008 49 221 3.0 8.0 0.00 0.00 0.00 84 1030.0
20190323072511 49 211 3.0 8.0 0.00 0.00 0.00 84 1030.0
20190323072011 49 245 2.0 8.0 0.00 0.00 0.00 84 1030.0
20190323071508 49 254 3.0 8.0 0.00 0.00 0.00 84 1030.0
20190323071013 49 247 3.0 8.0 0.00 0.00 0.00 84 1030.0
20190323070507 49 248 5.0 7.0 0.00 0.00 0.00 84 1030.0
20190323070012 49 248 6.0 8.0 0.00 0.00 0.00 84 1030.0
20190323065507 49 238 6.0 8.0 0.00 0.00 0.00 84 1030.0
20190323065012 49 239 6.0 8.0 0.00 0.00 0.00 84 1030.0
20190323064508 49 241 6.0 8.0 0.00 0.00 0.00 84 1030.0
20190323064011 49 239 7.0 8.0 0.00 0.00 0.00 84 1030.0
20190323063511 49 247 6.0 8.0 0.00 0.00 0.00 84 1030.0
20190323063011 49 227 6.0 7.0 0.00 0.00 0.00 84 1029.9
20190323062508 49 244 3.0 6.0 0.00 0.00 0.00 84 1029.0
20190323062011 49 248 5.0 6.0 0.00 0.00 0.00 84 1029.0
20190323061507 49 241 1.0 6.0 0.00 0.00 0.00 84 1029.7
20190323061011 49 223 0.0 6.0 0.00 0.00 0.00 84 1030.0
20190323060507 49 241 2.0 6.0 0.00 0.00 0.00 84 1030.0
20190323060012 49 243 3.0 5.0 0.00 0.00 0.00 84 1030.0
20190323055509 49 211 1.0 3.0 0.00 0.00 0.00 84 1030.0
20190323055011 49 205 1.0 3.0 0.00 0.00 0.00 84 1030.0
20190323054508 49 242 1.0 6.0 0.00 0.00 0.00 84 1029.3
20190323054011 49 248 2.0 6.0 0.00 0.00 0.00 84 1029.0
20190323053508 49 252 1.0 6.0 0.00 0.00 0.00 84 1029.0
20190323053012 49 259 0.0 7.0 0.00 0.00 0.00 84 1029.0
20190323052015 49 238 3.0 7.0 0.00 0.00 0.00 84 1029.0
20190323051515 49 246 3.0 7.0 0.00 0.00 0.00 84 1029.0
20190323051016 49 223 5.0 7.0 0.00 0.00 0.00 84 1029.0
20190323050515 49 231 5.0 8.0 0.00 0.00 0.00 84 1029.0
20190323050014 49 228 6.0 8.0 0.00 0.00 0.00 84 1029.0
20190323045514 49 235 3.0 8.0 0.00 0.00 0.00 84 1029.0
20190323045015 49 237 5.0 10.0 0.00 0.00 0.00 84 1029.0
20190323044515 49 248 5.0 7.0 0.00 0.00 0.00 84 1029.0
20190323044015 49 245 7.0 10.0 0.00 0.00 0.00 84 1029.0
20190323043516 49 244 6.0 8.0 0.00 0.00 0.00 85 1029.0
20190323043015 49 234 6.0 8.0 0.00 0.00 0.00 85 1029.0
20190323042514 49 247 5.0 8.0 0.00 0.00 0.00 85 1029.0
20190323042015 49 229 2.0 6.0 0.00 0.00 0.00 85 1029.0
20190323041515 49 230 2.0 6.0 0.00 0.00 0.00 85 1029.0
20190323041014 49 223 5.0 6.0 0.00 0.00 0.00 85 1029.0
20190323040515 49 208 5.0 7.0 0.00 0.00 0.00 85 1029.0
20190323040016 49 242 2.0 6.0 0.00 0.00 0.00 85 1029.0
20190323035515 49 236 5.0 10.0 0.00 0.00 0.00 85 1029.0
20190323035016 49 246 7.0 10.0 0.00 0.00 0.00 85 1029.0
20190323034515 49 225 3.0 8.0 0.00 0.00 0.00 85 1029.0
20190323034015 49 225 6.0 8.0 0.00 0.00 0.00 85 1029.0
20190323033515 49 237 5.0 8.0 0.00 0.00 0.00 85 1029.0
20190323033015 49 247 6.0 8.0 0.00 0.00 0.00 85 1029.0
20190323032514 49 236 2.0 8.0 0.00 0.00 0.00 85 1029.0
20190323032015 49 226 2.0 7.0 0.00 0.00 0.00 85 1029.0
20190323031515 49 225 6.0 8.0 0.00 0.00 0.00 85 1029.0
20190323031016 49 238 5.0 8.0 0.00 0.00 0.00 85 1029.0
20190323030516 49 211 5.0 8.0 0.00 0.00 0.00 85 1029.0
20190323030016 49 215 6.0 10.0 0.00 0.00 0.00 85 1029.0
20190323025515 49 221 3.0 8.0 0.00 0.00 0.00 85 1029.0
20190323025015 49 213 3.0 8.0 0.00 0.00 0.00 85 1029.0
20190323024516 49 237 2.0 6.0 0.00 0.00 0.00 85 1029.0
20190323024015 49 246 5.0 7.0 0.00 0.00 0.00 85 1029.0
20190323023516 49 226 3.0 7.0 0.00 0.00 0.00 85 1029.0
20190323023015 49 235 5.0 7.0 0.00 0.00 0.00 85 1029.0
20190323022514 49 247 3.0 7.0 0.00 0.00 0.00 85 1029.0
20190323022015 48 234 1.0 7.0 0.00 0.00 0.00 85 1029.0
20190323021514 48 229 5.0 6.0 0.00 0.00 0.00 85 1029.0
20190323021015 48 231 3.0 6.0 0.00 0.00 0.00 85 1029.0
20190323020517 48 240 2.0 3.0 0.00 0.00 0.00 85 1029.0
20190323020015 48 251 7.0 8.0 0.00 0.00 0.00 85 1029.0
20190323015516 48 248 5.0 7.0 0.00 0.00 0.00 85 1029.0
20190323015016 48 230 5.0 7.0 0.00 0.00 0.00 85 1029.0
20190323014516 48 234 2.0 7.0 0.00 0.00 0.00 85 1029.0
20190323014015 48 239 3.0 7.0 0.00 0.00 0.00 85 1029.0
20190323013516 48 220 5.0 8.0 0.00 0.00 0.00 85 1029.0
20190323013015 48 230 5.0 6.0 0.00 0.00 0.00 85 1029.0
20190323012515 48 239 3.0 6.0 0.00 0.00 0.00 85 1029.0
20190323012015 48 244 3.0 7.0 0.00 0.00 0.00 85 1029.0
20190323011515 48 217 2.0 7.0 0.00 0.00 0.00 85 1029.0
20190323011015 48 231 2.0 7.0 0.00 0.00 0.00 85 1029.0
20190323010516 48 231 3.0 8.0 0.00 0.00 0.00 85 1029.0
20190323010014 48 250 5.0 8.0 0.00 0.00 0.00 85 1029.0
20190323005511 48 266 3.0 7.0 0.00 0.00 0.00 85 1029.0
20190323004515 48 226 3.0 6.0 0.00 0.00 0.00 86 1029.0
20190323004015 48 219 2.0 6.0 0.00 0.00 0.00 86 1029.0
20190323003516 48 225 2.0 6.0 0.00 0.00 0.00 86 1029.0
20190323003015 48 218 5.0 6.0 0.00 0.00 0.00 85 1029.0
20190323002515 48 245 2.0 6.0 0.00 0.00 0.00 85 1029.0
20190323002016 48 226 3.0 3.0 0.00 0.00 0.00 85 1029.0
20190323001515 48 242 3.0 6.0 0.00 0.00 0.00 86 1029.0
20190323001016 48 223 3.0 6.0 0.00 0.00 0.00 87 1029.0
20190323000515 48 246 5.0 8.0 0.00 0.00 0.00 87 1029.0
20190323000015 48 255 3.0 8.0 0.00 0.00 0.00 87 1029.0
20190322235515 48 245 1.0 3.0 0.00 0.00 0.00 87 1029.0
20190322235015 48 219 1.0 5.0 0.00 0.00 0.00 87 1029.0
20190322234516 48 218 3.0 6.0 0.00 0.00 0.00 87 1029.0
20190322234015 48 235 1.0 6.0 0.00 0.00 0.00 87 1029.0
20190322233515 48 232 3.0 6.0 0.00 0.00 0.00 87 1029.0
20190322233016 48 233 1.0 7.0 0.00 0.00 0.00 87 1029.0
20190322232515 48 266 3.0 7.0 0.00 0.00 0.00 87 1029.0
20190322232015 48 208 5.0 6.0 0.00 0.00 0.00 87 1029.0
20190322231515 48 267 3.0 10.0 0.00 0.00 0.00 87 1028.6
20190322230514 47 282 5.0 10.0 0.00 0.00 0.00 89 1028.0
20190322230017 47 287 7.0 8.0 0.00 0.00 0.00 89 1028.1
20190322225516 47 249 9.0 12.0 0.00 0.00 0.00 89 1029.0
20190322225016 47 264 10.0 12.0 0.00 0.00 0.00 89 1029.0
20190322224514 47 262 6.0 8.0 0.00 0.00 0.00 89 1029.0
20190322224015 47 253 5.0 9.0 0.00 0.00 0.00 89 1029.0
20190322223516 47 257 6.0 9.0 0.00 0.00 0.00 89 1029.0
20190322223015 47 264 6.0 8.0 0.00 0.00 0.00 89 1029.0
20190322222516 47 282 6.0 8.0 0.00 0.00 0.00 89 1029.0
20190322222015 47 254 7.0 8.0 0.00 0.00 0.00 89 1029.0
20190322221515 47 266 6.0 10.0 0.00 0.00 0.00 89 1029.0
20190322221017 47 264 6.0 13.0 0.00 0.00 0.00 89 1029.0
20190322220516 47 284 6.0 13.0 0.00 0.00 0.00 89 1029.0
20190322220015 47 268 7.0 13.0 0.00 0.00 0.00 89 1029.0
20190322215516 47 265 8.0 12.0 0.00 0.00 0.00 89 1029.0
20190322215016 47 256 6.0 15.0 0.00 0.00 0.00 89 1029.0
20190322214516 47 252 8.0 18.0 0.00 0.00 0.00 89 1029.0
20190322214016 47 254 8.0 18.0 0.00 0.00 0.00 89 1029.0
20190322213516 47 253 9.0 12.0 0.00 0.00 0.00 89 1029.0
20190322213014 47 262 10.0 16.0 0.00 0.00 0.00 89 1029.0
20190322212515 47 257 5.0 8.0 0.00 0.00 0.00 89 1029.0
20190322212014 47 263 5.0 7.0 0.00 0.00 0.00 89 1029.0
20190322211515 47 263 5.0 10.0 0.00 0.00 0.00 89 1029.0
20190322211016 47 245 7.0 10.0 0.00 0.00 0.00 88 1029.0
20190322210515 47 276 5.0 8.0 0.00 0.00 0.00 88 1029.0
20190322210016 47 255 8.0 8.0 0.00 0.00 0.00 88 1029.0
20190322205516 47 254 7.0 10.0 0.00 0.00 0.00 88 1029.0
20190322205016 47 255 7.0 10.0 0.00 0.00 0.00 88 1029.0
20190322204515 47 266 7.0 10.0 0.00 0.00 0.00 88 1028.9
20190322204016 46 266 6.0 14.0 0.00 0.00 0.00 87 1028.0
20190322203516 46 258 7.0 14.0 0.00 0.00 0.00 88 1028.0
20190322203016 46 274 7.0 13.0 0.00 0.00 0.00 87 1028.0
20190322202514 47 275 7.0 10.0 0.00 0.00 0.00 87 1028.0
20190322202017 46 286 5.0 10.0 0.00 0.00 0.00 87 1028.0
20190322201516 46 240 3.0 9.0 0.00 0.00 0.00 87 1028.0
20190322201015 46 269 3.0 8.0 0.00 0.00 0.00 86 1028.0
20190322200516 46 276 5.0 8.0 0.00 0.00 0.00 86 1028.0
20190322200016 46 292 6.0 8.0 0.00 0.00 0.00 86 1028.0
20190322195515 46 269 3.0 8.0 0.00 0.00 0.00 85 1028.0
20190322195016 46 295 7.0 10.0 0.00 0.00 0.00 85 1028.0
20190322194515 46 254 7.0 10.0 0.00 0.00 0.00 84 1028.1
20190322194014 46 276 7.0 10.0 0.00 0.00 0.00 84 1029.0
20190322193516 46 279 6.0 8.0 0.00 0.00 0.00 83 1029.0
20190322193015 46 269 7.0 10.0 0.00 0.00 0.00 82 1028.8
20190322192515 46 270 5.0 8.0 0.00 0.00 0.00 82 1028.0
20190322192014 46 243 5.0 8.0 0.00 0.00 0.00 81 1028.0
20190322191515 46 269 6.0 12.0 0.00 0.00 0.00 81 1028.0
20190322191016 47 272 7.0 12.0 0.00 0.00 0.00 81 1028.0
20190322190516 47 302 6.0 9.0 0.00 0.00 0.00 80 1028.0
20190322190015 47 303 8.0 12.0 0.00 0.00 0.00 80 1028.0
20190322185515 47 270 6.0 12.0 0.00 0.00 0.00 79 1028.0
20190322185016 47 283 7.0 12.0 0.00 0.00 0.00 79 1028.0
20190322184515 47 257 8.0 12.0 0.00 0.00 0.00 79 1028.0
20190322184015 47 274 7.0 10.0 0.00 0.00 0.00 77 1028.0
20190322183515 47 268 8.0 10.0 0.00 0.00 0.00 76 1028.0
20190322183017 48 279 8.0 12.0 0.00 0.00 0.00 76 1027.9
20190322182516 48 279 8.0 12.0 0.00 0.00 0.00 75 1027.0
20190322182016 48 277 7.0 8.0 0.00 0.00 0.00 74 1027.0
20190322181514 49 266 6.0 10.0 0.00 0.00 0.00 74 1026.8
20190322181016 49 278 6.0 12.0 0.00 0.00 0.00 73 1026.0
20190322180515 49 251 5.0 12.0 0.00 0.00 0.00 72 1026.0
20190322180015 49 244 5.0 9.0 0.00 0.00 0.00 72 1026.1
20190322175514 49 271 2.0 10.0 0.00 0.00 0.00 72 1027.0
20190322175015 50 298 6.0 10.0 0.00 0.00 0.00 71 1027.0
20190322174515 50 285 5.0 8.0 0.00 0.00 0.00 70 1027.0
20190322174016 50 281 5.0 8.0 0.00 0.00 0.00 67 1027.0
20190322173515 51 309 8.0 12.0 0.00 0.00 0.00 66 1027.0
20190322173015 51 310 7.0 12.0 0.00 0.00 0.00 65 1026.8
20190322172515 52 307 7.0 10.0 0.00 0.00 0.00 63 1026.0
20190322172015 53 288 8.0 10.0 0.00 0.00 0.00 63 1026.0
20190322171515 53 346 6.0 8.0 0.00 0.00 0.00 61 1026.1
20190322171014 54 287 7.0 9.0 0.00 0.00 0.00 59 1027.0
20190322170515 55 309 7.0 12.0 0.00 0.00 0.00 58 1027.0
20190322170016 56 304 8.0 12.0 0.00 0.00 0.00 55 1027.0
20190322165516 56 286 9.0 13.0 0.00 0.00 0.00 53 1027.0
20190322165015 57 290 9.0 14.0 0.00 0.00 0.00 52 1027.0
20190322164515 57 305 9.0 14.0 0.00 0.00 0.00 51 1027.0
20190322164015 58 329 10.0 14.0 0.00 0.00 0.00 49 1027.0
20190322163515 58 336 9.0 14.0 0.00 0.00 0.00 48 1027.0
20190322163015 59 328 9.0 18.0 0.00 0.00 0.00 47 1027.0
20190322162515 59 276 9.0 22.0 0.00 0.00 0.00 45 1027.0
20190322162015 59 295 15.0 23.0 0.00 0.00 0.00 44 1027.0
20190322161514 60 286 9.0 23.0 0.00 0.00 0.00 43 1027.0
20190322161015 60 278 5.0 9.0 0.00 0.00 0.00 40 1027.0
20190322160514 60 295 3.0 8.0 0.00 0.00 0.00 39 1027.0
20190322160015 60 241 6.0 8.0 0.00 0.00 0.00 39 1027.0
20190322155516 61 261 7.0 9.0 0.00 0.00 0.00 39 1027.0
20190322155014 61 250 7.0 8.0 0.00 0.00 0.00 39 1027.0
20190322154514 61 237 7.0 10.0 0.00 0.00 0.00 38 1027.0
20190322154015 61 253 7.0 21.0 0.00 0.00 0.00 39 1027.0
20190322153515 61 231 7.0 21.0 0.00 0.00 0.00 38 1027.0
20190322153016 61 239 9.0 12.0 0.00 0.00 0.00 39 1027.0
20190322152515 61 255 9.0 12.0 0.00 0.00 0.00 39 1027.0
20190322152014 61 259 6.0 10.0 0.00 0.00 0.00 38 1027.0
20190322151514 61 254 8.0 12.0 0.00 0.00 0.00 38 1027.0
20190322151016 61 246 7.0 12.0 0.00 0.00 0.00 39 1027.0
20190322150516 61 236 7.0 12.0 0.00 0.00 0.00 39 1027.0
20190322150015 61 255 7.0 12.0 0.00 0.00 0.00 39 1027.0
20190322145514 61 255 9.0 13.0 0.00 0.00 0.00 39 1027.0
20190322145014 61 248 8.0 13.0 0.00 0.00 0.00 39 1027.0
20190322144515 61 243 9.0 13.0 0.00 0.00 0.00 39 1027.0
20190322144014 61 239 10.0 13.0 0.00 0.00 0.00 38 1027.0
20190322143516 61 241 12.0 22.0 0.00 0.00 0.00 37 1027.0
20190322143016 61 232 17.0 26.0 0.00 0.00 0.00 37 1027.0
20190322142516 61 235 9.0 26.0 0.00 0.00 0.00 37 1027.0
20190322142015 61 239 15.0 29.0 0.00 0.00 0.00 37 1027.0
20190322141515 61 261 8.0 24.0 0.00 0.00 0.00 39 1027.0
20190322141015 61 253 8.0 10.0 0.00 0.00 0.00 40 1027.0
20190322140515 61 242 13.0 25.0 0.00 0.00 0.00 41 1027.0
20190322140016 61 249 16.0 25.0 0.00 0.00 0.00 40 1027.1
20190322135512 62 248 22.0 28.0 0.00 0.00 0.00 40 1028.0
20190322135009 62 254 20.0 28.0 0.00 0.00 0.00 40 1028.0
20190322134512 62 249 22.0 28.0 0.00 0.00 0.00 41 1028.0
20190322134009 62 226 13.0 26.0 0.00 0.00 0.00 42 1028.0
20190322133512 62 228 12.0 22.0 0.00 0.00 0.00 43 1028.0
20190322133008 61 233 15.0 22.0 0.00 0.00 0.00 42 1028.6
20190322132512 61 241 14.0 25.0 0.00 0.00 0.00 42 1029.0
20190322132009 62 240 13.0 25.0 0.00 0.00 0.00 41 1029.0
20190322131512 62 252 12.0 30.0 0.00 0.00 0.00 41 1029.0
20190322130515 61 225 7.0 18.0 0.00 0.00 0.00 42 1029.0
20190322130015 61 229 5.0 10.0 0.00 0.00 0.00 42 1029.0
20190322125514 61 243 6.0 12.0 0.00 0.00 0.00 41 1029.0
20190322125015 61 254 7.0 18.0 0.00 0.00 0.00 39 1029.0
20190322124508 61 226 9.0 18.0 0.00 0.00 0.00 39 1028.3
20190322124012 61 237 9.0 18.0 0.00 0.00 0.00 40 1028.0
20190322123512 61 207 8.0 14.0 0.00 0.00 0.00 42 1028.0
20190322123011 61 229 6.0 18.0 0.00 0.00 0.00 43 1028.1
20190322122508 60 204 8.0 18.0 0.00 0.00 0.00 47 1029.0
20190322122012 60 231 7.0 18.0 0.00 0.00 0.00 48 1029.0
20190322121509 60 159 8.0 14.0 0.00 0.00 0.00 50 1029.0
20190322121011 59 132 7.0 18.0 0.00 0.00 0.00 50 1029.0
20190322120508 59 168 9.0 18.0 0.00 0.00 0.00 53 1029.3
20190322120009 59 159 10.0 16.0 0.00 0.00 0.00 55 1029.6
20190322115512 59 126 10.0 17.0 0.00 0.00 0.00 57 1030.0
20190322115010 58 0 8.0 17.0 0.00 0.00 0.00 57 1030.0
20190322114511 58 65 6.0 17.0 0.00 0.00 0.00 60 1030.0
20190322114012 58 211 3.0 12.0 0.00 0.00 0.00 59 1030.0
20190322113507 57 128 7.0 12.0 0.00 0.00 0.00 69 1030.0
20190322113012 57 138 6.0 13.0 0.00 0.00 0.00 71 1030.0
20190322112511 57 181 6.0 15.0 0.00 0.00 0.00 74 1030.0
20190322112008 56 101 8.0 15.0 0.00 0.00 0.00 82 1030.0
20190322111512 56 113 6.0 12.0 0.00 0.00 0.00 85 1030.0
20190322111011 56 101 8.0 12.0 0.00 0.00 0.00 91 1030.0